This is the latest recevied weather packets stored in our database for station/object SR6WVX. If no packets are shown the sender has not sent any weather packets the latest 10 day(s).
| Time | Temp. | Humidity | Pressure | Rain* | Wind** | Luminosity | Snow |
|---|---|---|---|---|---|---|---|
| 1777539048 | 18.33° C | 27% | 1027.2 hPa | 0 mm | - | - | - |
| 1777538748 | 17.22° C | 29% | 1027.2 hPa | 0 mm | - | - | - |
| 1777538448 | 17.22° C | 29% | 1027.3 hPa | 0 mm | - | - | - |
| 1777538147 | 16.11° C | 30% | 1027.3 hPa | 0 mm | - | - | - |
| 1777537847 | 16.11° C | 31% | 1027.4 hPa | 0 mm | - | - | - |
| 1777537547 | 16.11° C | 31% | 1027.4 hPa | 0 mm | - | - | - |
| 1777537247 | 16.11° C | 32% | 1027.4 hPa | 0 mm | - | - | - |
| 1777536946 | 15.56° C | 33% | 1027.5 hPa | 0 mm | - | - | - |
| 1777536646 | 15° C | 32% | 1027.4 hPa | 0 mm | - | - | - |
| 1777536346 | 15° C | 31% | 1027.5 hPa | 0 mm | - | - | - |
| 1777536046 | 15° C | 31% | 1027.5 hPa | 0 mm | - | - | - |
| 1777535746 | 14.44° C | 34% | 1027.5 hPa | 0 mm | - | - | - |
| 1777535445 | 14.44° C | 34% | 1027.5 hPa | 0 mm | - | - | - |
| 1777535145 | 13.89° C | 34% | 1027.5 hPa | 0 mm | - | - | - |
| 1777534845 | 13.89° C | 34% | 1027.5 hPa | 0 mm | - | - | - |
| 1777534544 | 13.89° C | 35% | 1027.4 hPa | 0 mm | - | - | - |
| 1777534244 | 13.89° C | 35% | 1027.4 hPa | 0 mm | - | - | - |
| 1777533944 | 13.89° C | 34% | 1027.5 hPa | 0 mm | - | - | - |
| 1777533644 | 14.44° C | 32% | 1027.4 hPa | 0 mm | - | - | - |
| 1777533343 | 14.44° C | 38% | 1027.2 hPa | 0 mm | - | - | - |
| 1777533043 | 13.89° C | 38% | 1027.4 hPa | 0 mm | - | - | - |
| 1777532743 | 13.89° C | 38% | 1027.5 hPa | 0 mm | - | - | - |
| 1777532443 | 13.89° C | 39% | 1027.6 hPa | 0 mm | - | - | - |
| 1777532142 | 13.89° C | 37% | 1027.7 hPa | 0 mm | - | - | - |
| 1777531842 | 13.89° C | 38% | 1027.6 hPa | 0 mm | - | - | - |
* Rain latest hour (hover to see other rain measurements)
** Current wind speed in m/s (hover to see current wind gust speed)